Weather History for Kimball, NE

Change the Weather History Date:

Monday, September 16, 2013

  Actual Average (KSNY) Record (KSNY)
Temperature  
Mean Temperature 60 °F 63 °F  
Max Temperature 66 °F 79 °F 93 °F (2000)
Min Temperature 53 °F 48 °F 29 °F (1965)
Degree Days  
Heating Degree Days 6 4  
Month to date heating degree days 35  
Since 1 July heating degree days 46  
Cooling Degree Days 0 2  
Month to date cooling degree days 65  
Year to date cooling degree days 807  
Growing Degree Days 10 (Base 50)    
Moisture  
Dew Point 54 °F    
Average Humidity 89    
Maximum Humidity 96    
Minimum Humidity 69    
Precipitation  
Precipitation 0.00 in 0.03 in 0.63 in (1971)
Month to date precipitation 0.77  
Year to date precipitation 15.93  
Sea Level Pressure  
Sea Level Pressure 30.20 in    
Wind  
Wind Speed 12 mph (SSE)    
Max Wind Speed 20 mph    
Max Gust Speed 23 mph    
Visibility 7 miles    
Events Rain    
T = Trace of Precipitation, MM = Missing Value Source: NWS Daily Summary

Daily Weather History Graph

Daily Weather History Graph

Search for Another Location

Airport:

Trip Planner

Search our weather history database for the weather conditions in past years. The results will help you decide how hot, cold, wet, or windy it might be!

Date:

Astronomy

Sep. 16, 2013 Rise Set
Actual Time 7:36 AM CDT 8:01 PM CDT
Civil Twilight 7:08 AM CDT 8:29 PM CDT
Nautical Twilight 6:36 AM CDT 9:01 PM CDT
Astronomical Twilight 6:02 AM CDT 9:35 PM CDT
Moon 6:13 PM CDT (9/16) 4:23 AM CDT (9/16)
Length of Visible Light 13h 20m
Length of Day
12h 25m
Waxing Gibbous, 90% of the Moon is Illuminated
Sep 16
Waxing Gibbous
Sep 19
Full
Sep 26
Last Quarter
Oct 4
New
Oct 11
First Quarter

Hourly Weather History & Observations

Time (CDT) Temp. Dew Point Humidity Pressure Visibility Wind Dir Wind Speed Gust Speed Precip Events Conditions
12:15 AM 54.5 °F 52.2 °F 92% 30.30 in 10.0 mi SE 6.9 mph - N/A   Overcast
12:35 AM 54.7 °F 52.7 °F 93% 30.30 in 10.0 mi SE 5.8 mph - N/A   Overcast
12:55 AM 54.7 °F 53.1 °F 94% 30.30 in 10.0 mi ESE 5.8 mph - N/A   Overcast
1:15 AM 54.9 °F 53.1 °F 94% 30.29 in 10.0 mi SE 8.1 mph - N/A   Overcast
1:35 AM 55.4 °F 52.9 °F 91% 30.29 in 10.0 mi SE 10.4 mph - N/A   Overcast
1:55 AM 55.0 °F 52.5 °F 91% 30.29 in 10.0 mi SSE 11.5 mph - N/A   Overcast
2:15 AM 54.5 °F 52.5 °F 93% 30.29 in 5.0 mi SSE 16.1 mph - N/A Rain Rain
2:35 AM 54.3 °F 52.2 °F 92% 30.28 in 10.0 mi SSE 15.0 mph - N/A   Overcast
2:55 AM 54.5 °F 52.2 °F 92% 30.28 in 10.0 mi SSE 13.8 mph - N/A   Overcast
3:15 AM 54.1 °F 52.3 °F 94% 30.28 in 5.0 mi SSE 11.5 mph - N/A   Overcast
3:35 AM 54.0 °F 52.7 °F 95% 30.27 in 4.0 mi SSE 11.5 mph - N/A Rain Light Rain
3:55 AM 54.0 °F 52.7 °F 95% 30.27 in 4.0 mi SSE 11.5 mph - N/A   Drizzle
4:15 AM 54.0 °F 52.7 °F 95% 30.26 in 5.0 mi SSE 12.7 mph - N/A   Light Drizzle
4:35 AM 53.8 °F 52.5 °F 95% 30.26 in 7.0 mi SSE 10.4 mph - N/A   Overcast
4:55 AM 53.8 °F 52.3 °F 95% 30.26 in 3.0 mi SE 12.7 mph - N/A   Overcast
5:15 AM 53.8 °F 52.7 °F 96% 30.25 in 2.5 mi SE 10.4 mph - N/A   Light Drizzle
5:35 AM 53.6 °F 52.3 °F 95% 30.25 in 3.0 mi SE 12.7 mph - N/A   Overcast
5:55 AM 53.6 °F 52.3 °F 95% 30.25 in 5.0 mi SSE 12.7 mph - N/A   Overcast
6:15 AM 53.6 °F 52.2 °F 95% 30.25 in 5.0 mi SSE 15.0 mph - N/A   Overcast
6:35 AM 53.6 °F 52.2 °F 95% 30.25 in 4.0 mi SE 12.7 mph - N/A   Overcast
6:55 AM 53.8 °F 52.7 °F 96% 30.25 in 5.0 mi SSE 15.0 mph - N/A   Overcast
7:15 AM 53.8 °F 52.7 °F 96% 30.25 in 3.0 mi SSE 16.1 mph - N/A   Overcast
7:35 AM 53.8 °F 52.5 °F 95% 30.26 in 5.0 mi SSE 15.0 mph - N/A   Overcast
7:55 AM 53.8 °F 52.3 °F 95% 30.26 in 2.5 mi SSE 13.8 mph 19.6 mph N/A Rain Rain
8:15 AM 53.8 °F 52.5 °F 95% 30.26 in 2.0 mi SSE 15.0 mph 19.6 mph N/A   Drizzle
8:35 AM 54.0 °F 52.7 °F 95% 30.26 in 5.0 mi SSE 16.1 mph 20.7 mph N/A   Overcast
8:55 AM 54.1 °F 52.7 °F 95% 30.26 in 3.0 mi SSE 13.8 mph 19.6 mph N/A Rain Rain
9:15 AM 54.1 °F 52.7 °F 95% 30.26 in 2.0 mi SSE 15.0 mph 19.6 mph N/A Rain Light Rain
9:35 AM 54.5 °F 53.1 °F 95% 30.26 in 2.0 mi SSE 13.8 mph 19.6 mph N/A   Light Drizzle
9:55 AM 54.5 °F 53.2 °F 96% 30.26 in 1.5 mi South 15.0 mph - N/A Rain Light Rain
10:15 AM 54.9 °F 53.6 °F 96% 30.25 in 2.5 mi South 17.3 mph 21.9 mph N/A Rain Light Rain
10:35 AM 55.4 °F 53.6 °F 94% 30.25 in 7.0 mi South 16.1 mph - N/A   Overcast
10:55 AM 55.4 °F 53.6 °F 94% 30.25 in 7.0 mi South 16.1 mph 20.7 mph N/A   Overcast
11:15 AM 55.9 °F 54.1 °F 94% 30.25 in 10.0 mi South 15.0 mph - N/A   Overcast
11:35 AM 55.4 °F 53.8 °F 94% 30.24 in 5.0 mi South 16.1 mph - N/A   Overcast
11:55 AM 55.8 °F 54.0 °F 94% 30.24 in 10.0 mi South 15.0 mph 20.7 mph N/A   Overcast
12:15 PM 56.1 °F 54.1 °F 93% 30.24 in 10.0 mi South 15.0 mph - N/A   Overcast
12:35 PM 56.3 °F 54.0 °F 92% 30.23 in 10.0 mi South 16.1 mph - N/A   Overcast
12:55 PM 56.5 °F 54.0 °F 91% 30.23 in 10.0 mi South 16.1 mph - N/A   Overcast
1:15 PM 56.8 °F 54.1 °F 91% 30.22 in 10.0 mi South 15.0 mph 19.6 mph N/A   Overcast
1:35 PM 57.9 °F 54.5 °F 88% 30.21 in 7.0 mi South 13.8 mph - N/A   Overcast
1:55 PM 58.1 °F 53.8 °F 86% 30.20 in 7.0 mi South 17.3 mph 20.7 mph N/A   Overcast
2:15 PM 59.0 °F 54.1 °F 84% 30.19 in 10.0 mi South 15.0 mph - N/A   Overcast
2:35 PM 60.3 °F 54.5 °F 81% 30.19 in 10.0 mi South 15.0 mph - N/A   Overcast
2:55 PM 61.9 °F 54.3 °F 76% 30.18 in 10.0 mi South 13.8 mph - N/A   Overcast
3:15 PM 63.0 °F 55.2 °F 76% 30.16 in 10.0 mi South 15.0 mph 18.4 mph N/A   Overcast
3:35 PM 63.5 °F 55.0 °F 74% 30.15 in 10.0 mi South 11.5 mph - N/A   Overcast
3:55 PM 64.0 °F 55.2 °F 73% 30.15 in 10.0 mi South 17.3 mph 20.7 mph N/A   Overcast
4:15 PM 64.6 °F 55.8 °F 73% 30.14 in 10.0 mi SSE 15.0 mph - N/A   Overcast
4:35 PM 64.9 °F 55.8 °F 72% 30.13 in 10.0 mi SSE 15.0 mph - N/A   Overcast
4:55 PM 65.5 °F 55.6 °F 70% 30.12 in 10.0 mi South 16.1 mph - N/A   Overcast
5:15 PM 65.8 °F 55.9 °F 70% 30.11 in 10.0 mi SSE 15.0 mph - N/A   Mostly Cloudy
5:35 PM 66.2 °F 56.1 °F 70% 30.10 in 10.0 mi SSE 19.6 mph 23.0 mph N/A   Mostly Cloudy
5:55 PM 66.9 °F 56.5 °F 69% 30.10 in 10.0 mi SSE 15.0 mph 21.9 mph N/A   Scattered Clouds
6:15 PM 66.7 °F 56.7 °F 70% 30.10 in 10.0 mi SSE 18.4 mph - N/A   Mostly Cloudy
6:35 PM 65.7 °F 56.8 °F 73% 30.10 in 10.0 mi SSE 16.1 mph - N/A   Mostly Cloudy
6:55 PM 65.8 °F 56.8 °F 73% 30.10 in 10.0 mi SSE 17.3 mph 23.0 mph N/A   Scattered Clouds
7:15 PM 64.0 °F 56.3 °F 76% 30.10 in 10.0 mi SSE 18.4 mph 23.0 mph N/A   Clear
7:35 PM 62.8 °F 56.3 °F 79% 30.10 in 10.0 mi SSE 15.0 mph - N/A   Clear
7:55 PM 61.7 °F 56.3 °F 82% 30.09 in 10.0 mi SSE 13.8 mph 20.7 mph N/A   Clear
8:15 PM 60.4 °F 56.3 °F 86% 30.08 in 10.0 mi SSE 15.0 mph - N/A   Clear
8:35 PM 59.2 °F 55.9 °F 89% 30.08 in 10.0 mi SSE 13.8 mph - N/A   Clear
8:55 PM 58.5 °F 55.9 °F 91% 30.08 in 10.0 mi SSE 15.0 mph - N/A   Clear
9:15 PM 58.1 °F 55.8 °F 92% 30.09 in 10.0 mi SSE 15.0 mph - N/A   Clear
9:35 PM 57.4 °F 55.6 °F 94% 30.09 in 10.0 mi SSE 12.7 mph - N/A   Scattered Clouds
9:55 PM 57.2 °F 55.6 °F 94% 30.09 in 10.0 mi SSE 10.4 mph - N/A   Overcast
10:15 PM 57.2 °F 55.6 °F 94% 30.09 in 7.0 mi SSE 15.0 mph 20.7 mph N/A   Overcast
10:35 PM 57.2 °F 55.6 °F 94% 30.09 in 7.0 mi South 17.3 mph 20.7 mph N/A   Overcast
10:55 PM 57.2 °F 55.6 °F 94% 30.08 in 7.0 mi SSE 15.0 mph 23.0 mph N/A   Overcast
11:15 PM 57.2 °F 55.6 °F 94% 30.08 in 7.0 mi SSE 13.8 mph 21.9 mph N/A   Overcast
11:35 PM 56.8 °F 55.4 °F 95% 30.09 in 5.0 mi SSE 12.7 mph 18.4 mph N/A   Overcast
11:55 PM 56.7 °F 55.4 °F 96% 30.08 in 3.0 mi SSE 13.8 mph - N/A   Overcast